Location: Buisson
(44.2787°N, 4.9969°E)
Time: 00:54:42
(UTC+00:00)

ARGOS Delta rocket - Pass Details

Date: 18 April 2021
Orbit: 634 x 839 km, 96.5° (Epoch: 07 May)

Event Time Altitude Azimuth Distance (km) Brightness Sun altitude
Rises 02:04:55 0° 11° (NNE) 2,978 8.0 -25.8°
Reaches altitude 10° 02:07:09 10° 13° (NNE) 2,048 7.0 -25.5°
Enters shadow 02:11:33 81° 87° (E) 649 3.6 -25.0°
